Portada
METAR-TAF:

METAR-TAF

Aeroports :

Tottori, Japó

latitud: 35-32N, longitud: 134-10E, altitud: 15 m

Observació

L'informe es va fer fa 8 hores i 16 minuts, a les 12:00 UTC
Vent 12 kt del Nord/Nord-Est
Temperatura 7°C
Humitat 61%
Pressió 1017 hPa
Visibilitat 10 km o més
Escasses núvols a una alçada de 3000 ft
Núvols disperses a una alçada de 4000 ft
Cel ennuvolat a una alçada de 6000 ft

METAR: RJOR 221200Z 03012KT 9999 FEW030 SCT040 BKN060 07/00 Q1017

Hora: 05:16 (20:16 UTC)


TAF: manca

Observacions i pronòstics meteorològics de més de 4000 aeroports (METAR i TAF).

Les estacions disponibles són els punts grocs i vermells al mapa.

Posi el ratolí al punt desitjat per veure el nom de l'estació.

Feu clic per veure les observacions i els pronòstics meteorològics.

Per canviar el mapa: feu clic els botons verds amb una creu de color negre per apropar; al botó verd amb un guió per allunyar la imatge; o en les fletxes verdes per a mapes adjacents.


METAR-TAF: